This is the latest recevied weather packets stored in our database for station/object IZ1UQG-2. If no packets are shown the sender has not sent any weather packets the latest 10 day(s).
| Time | Temp. | Humidity | Pressure | Rain* | Wind** | Luminosity | Snow |
|---|---|---|---|---|---|---|---|
| 1777274948 | 17.78° C | 58% | 1017.4 hPa | 0 mm | - | 417 W/m² | - |
| 1777274834 | 17.78° C | 58% | 1017.4 hPa | 0 mm | - | 408 W/m² | - |
| 1777274410 | 17.22° C | 60% | 1017.5 hPa | 0 mm | - | 394 W/m² | - |
| 1777274238 | 17.22° C | 59% | 1017.5 hPa | 0 mm | - | 387 W/m² | - |
| 1777273028 | 16.11° C | 63% | 1017.5 hPa | 0 mm | - | 330 W/m² | - |
| 1777271897 | 15.56° C | 64% | 1017.6 hPa | 0 mm | - | 278 W/m² | - |
| 1777271229 | 15.56° C | 66% | 1017.6 hPa | 0 mm | - | 248 W/m² | - |
| 1777270989 | 15.56° C | 65% | 1017.6 hPa | 0 mm | - | 237 W/m² | - |
| 1777270209 | 15° C | 66% | 1017.6 hPa | 0.25 mm | - | 202 W/m² | - |
| 1777270037 | 15° C | 67% | 1017.6 hPa | 0.25 mm | - | 195 W/m² | - |
| 1777269248 | 15° C | 66% | 1017.4 hPa | 0.25 mm | - | 155 W/m² | - |
| 1777269128 | 15° C | 67% | 1017.4 hPa | 0.25 mm | - | 149 W/m² | - |
| 1777268709 | 14.44° C | 69% | 1017.5 hPa | 0.25 mm | - | 130 W/m² | - |
| 1777266915 | 14.44° C | 69% | 1017.2 hPa | 0 mm | - | 54 W/m² | - |
| 1777266604 | 14.44° C | 70% | 1017.3 hPa | 0 mm | - | 44 W/m² | - |
| 1777266483 | 13.89° C | 69% | 1017.2 hPa | 0 mm | - | 42 W/m² | - |
| 1777265823 | 13.89° C | 70% | 1017 hPa | 0 mm | - | 26 W/m² | - |
| 1777265583 | 13.89° C | 70% | 1017.1 hPa | 0 mm | - | 21 W/m² | - |
| 1777265163 | 13.89° C | 70% | 1016.9 hPa | 0 mm | - | 18 W/m² | - |
| 1777265110 | 13.89° C | 70% | 1016.8 hPa | 0 mm | - | 18 W/m² | - |
| 1777264683 | 13.89° C | 69% | 1016.6 hPa | 0 mm | - | 12 W/m² | - |
| 1777264383 | 14.44° C | 69% | 1016.5 hPa | 0 mm | - | 11 W/m² | - |
| 1777263424 | 14.44° C | 69% | 1016.6 hPa | 0 mm | - | 0 W/m² | - |
| 1777263304 | 13.89° C | 69% | 1016.5 hPa | 0 mm | - | 0 W/m² | - |
| 1777263243 | 13.89° C | 69% | 1016.5 hPa | 0 mm | - | 0 W/m² | - |
* Rain latest hour (hover to see other rain measurements)
** Current wind speed in m/s (hover to see current wind gust speed)